7 * 24
多渠道服务支持
NINGXIA-1 5(宁夏一号05星,又称钟子号卫星)是中国宁夏金硅信息技术有限公司投资的商业航天项目,由航天东方红卫星有限公司研制。2019年11月13日于太原卫星发射中心,搭载长征六号运载火箭以一箭五星方式成功发射入轨。卫星主要应用于遥感探测领域,服务地球科学观测,推动商业航天遥感应用发展。
中国
(CN)
| 数据来源 | 国际轨道数据 |
| 星历时间: | 2026-05-24T12:21:45+0800 23小时前 查看轨道信息 |
| 半长轴: | 7264.721km |
| 偏心率: | 0.0010357 |
| 轨道倾角: | 45.007° |
| 近地点辐角 | 31.707° |
| 升交点赤经 | 286.480° |
| 平近点角 | 328.439° |
| 近地点: | 879.059km |
| 远地点: | 894.109km |
| 周期: | 102.704分钟 |
| 每日圈数: | 14.020851 |